Date,TemperatureHighF,TemperatureAvgF,TemperatureLowF,DewpointHighF,DewpointAvgF,DewpointLowF,HumidityHigh,HumidityAvg,HumidityLow,PressureMaxIn,PressureMinIn,WindSpeedMaxMPH,WindSpeedAvgMPH,GustSpeedMaxMPH,PrecipitationSumIn
2013-1-1,22,14,7,12,6,2,84,70,45,0.00,40.00,18,10,21,0.00
2013-1-2,33,18,6,18,10,1,81,70,47,0.00,40.00,14,8,23,0.00
2013-1-3,29,24,14,26,19,9,93,80,58,0.00,40.00,21,13,32,0.00
2013-1-4,34,22,10,23,16,8,90,79,57,0.00,40.00,25,14,33,0.00
2013-1-5,36,28,17,33,26,16,97,91,68,0.00,40.00,20,11,27,0.00
2013-1-6,34,23,14,33,19,10,93,84,66,0.00,40.00,24,13,36,0.00
2013-1-7,41,26,11,27,19,9,93,79,43,0.00,40.00,27,11,38,0.00
2013-1-8,45,33,24,32,27,22,93,79,50,0.00,40.00,19,10,24,0.00
2013-1-9,47,37,26,32,26,20,92,69,38,0.00,40.00,30,14,39,0.00
2013-1-10,43,33,23,38,28,21,97,83,46,0.00,40.00,26,14,34,0.00
2013-1-11,50,46,39,48,45,38,97,96,89,0.00,40.00,22,14,32,0.00
2013-1-12,51,38,26,46,33,22,92,83,74,0.00,40.00,27,15,35,0.00
2013-1-13,26,18,11,23,14,5,93,83,74,0.00,40.00,20,13,28,0.00
2013-1-14,25,14,8,12,6,-100,85,74,48,0.00,40.00,14,7,18,0.00
2013-1-15,29,22,13,16,12,7,88,69,50,0.00,40.00,7,3,9,0.00
2013-1-16,35,25,15,31,18,9,89,74,52,0.00,40.00,25,11,34,0.00
2013-1-17,35,26,20,31,17,8,91,69,43,0.00,40.00,20,11,24,0.00
2013-1-18,42,31,17,30,23,14,90,73,55,0.00,40.00,31,14,45,0.00
2013-1-19,47,39,26,38,30,11,80,70,49,0.00,40.00,52,20,63,0.00
2013-1-20,26,16,11,13,5,2,70,62,56,0.00,40.00,34,16,51,0.00
2013-1-21,12,8,4,7,-2,-6,82,65,50,0.00,40.00,26,18,36,0.00
2013-1-22,12,5,-3,-1,-4,-8,78,64,52,0.00,40.00,19,11,26,0.00
2013-1-23,21,14,10,12,6,-1,84,71,58,0.00,40.00,29,10,38,0.00
2013-1-24,21,12,3,9,3,-4,72,65,54,0.00,40.00,22,12,30,0.00
2013-1-25,31,22,16,19,14,8,95,73,56,0.00,40.00,26,14,35,0.00
2013-1-26,28,18,6,17,9,3,86,69,42,0.00,40.00,13,6,18,0.00
2013-1-27,24,24,22,20,18,15,84,79,73,0.00,40.00,21,15,26,0.00
2013-1-28,45,41,38,45,40,38,98,97,97,0.00,40.00,21,9,26,0.00
2013-1-29,63,54,42,59,53,41,97,95,86,0.00,40.00,24,12,34,0.00
2013-1-30,49,32,18,48,30,12,97,93,77,0.00,40.00,26,16,37,0.00
2013-1-31,14,8,1,7,1,-6,78,71,66,0.00,40.00,29,21,39,0.00